Location: Bottenau
(48.5138°N, 8.0462°E)
Time: 19:58:18
(UTC+00:00)

Cosmos 2263 Rocket - Pass Details

Date: 18 April 2021
Orbit: 824 x 848 km, 71.0° (Epoch: 18 May)

Event Time Altitude Azimuth Distance (km) Brightness Sun altitude
Exits shadow 23:24:19 54° 307° (NW) 995 2.6 -30.3°
Drops below altitude 10° 23:29:42 10° 21° (NNE) 2,438 5.4 -30.3°
Sets 23:32:13 0° 26° (NNE) 3,377 6.3 -30.3°
